Temperature
25 25 24 24 27 27 29 31 33 32 32 32 32 32 31 29 28 25 25 24 23 22 22 21 21 20 20 20 19 19 19 19 19 19 19 19 18 18 18 18 18 18 18 18 18 18 18 18 18
24 24 25 27 28 28 30 32 32 32 32 32 32 31 30 29 28 26 25 24 22 22 22 21 21 20 20 20 19 19 19 19 19 19 19 18 18 18 18 18 18 18 18 18 18 18 18 18 18
25 25 28 30 29 29 31 33 33 33 33 32 32 31 30 28 27 26 24 23 22 21 21 21 21 20 20 20 19 19 19 19 19 19 19 18 18 18 18 18 18 18 18 18 18 18 18 18 18
24 27 29 30 30 32 33 33 34 33 33 32 32 30 28 27 27 25 24 23 22 21 21 21 21 20 20 20 19 19 19 19 19 19 18 18 18 18 18 18 18 18 18 18 18 18 18 18 18
26 29 30 30 31 33 34 34 34 33 33 32 31 29 27 26 26 25 24 23 22 21 21 21 21 20 20 20 19 19 19 19 19 19 18 18 18 18 18 18 18 18 18 18 18 18 18 18 18
28 31 30 30 31 33 34 34 33 33 33 32 31 29 26 25 25 24 24 23 22 21 21 21 20 20 20 19 19 19 19 19 19 19 18 18 18 18 18 18 18 18 18 18 18 18 18 18 18
29 30 31 31 32 33 34 34 33 33 32 32 31 29 26 25 24 24 24 23 22 21 21 21 20 20 20 19 19 19 19 19 19 19 19 18 18 18 18 18 18 18 18 18 18 18 18 18 18
29 31 31 32 33 33 34 33 33 33 32 31 31 29 26 25 24 24 24 23 22 21 20 20 20 20 20 19 19 19 19 19 19 19 19 18 18 18 18 18 18 18 18 18 18 18 18 18 19
30 30 30 32 33 33 34 33 33 32 31 31 30 29 26 25 24 24 23 23 22 21 20 19 20 20 19 19 19 19 19 19 19 19 19 18 18 18 18 18 18 18 18 18 18 18 18 18 19
31 30 31 33 34 34 34 33 33 32 31 30 29 27 26 25 24 24 23 23 22 21 20 19 19 19 19 18 19 19 19 19 19 19 18 18 18 18 18 18 18 18 18 18 18 18 18 18 18
32 31 33 34 35 34 34 33 32 33 31 31 29 27 26 25 24 24 23 23 22 21 20 20 19 19 19 19 19 18 18 19 18 18 18 18 18 18 18 18 18 18 18 18 18 18 18 18 18
32 33 33 34 34 34 34 33 33 33 32 31 29 27 26 25 24 23 23 22 21 21 20 20 19 19 19 19 19 19 18 18 18 18 18 18 18 18 18 18 18 18 18 18 18 18 18 18 18
33 33 33 33 33 33 33 33 33 33 31 30 29 27 26 25 24 24 23 22 21 20 20 20 20 19 19 19 19 19 19 19 18 18 18 18 18 18 18 18 18 18 18 18 18 18 18 18 18
33 33 33 33 33 33 33 33 33 32 32 30 29 28 27 26 25 23 22 22 21 20 20 20 19 19 19 19 19 19 19 19 19 18 18 18 18 18 18 18 18 18 18 18 18 18 18 18 18
33 33 33 33 33 33 33 32 32 31 31 31 30 28 27 26 25 23 22 21 21 20 20 19 19 19 19 19 19 19 19 19 19 18 18 18 18 18 18 18 18 18 18 18 18 18 18 18 18
32 32 31 33 33 33 32 30 31 31 31 31 30 29 27 26 25 23 22 21 20 20 19 19 19 19 19 19 19 19 19 19 18 18 18 18 18 18 18 18 18 18 18 18 18 18 18 18 18
31 31 31 32 33 33 32 31 31 31 31 31 30 29 27 26 24 23 22 21 20 20 19 19 19 18 18 18 18 18 18 18 18 18 18 18 18 18 18 18 18 18 18 18 18 17 18 18 18
30 31 31 31 33 33 32 31 32 31 31 31 30 29 27 26 24 23 22 21 20 19 19 19 18 18 18 18 18 18 18 18 18 18 18 18 18 18 18 18 18 18 18 17 17 17 17 18 18
31 31 31 32 33 33 32 32 32 32 32 31 30 29 27 26 24 23 22 21 20 19 19 18 18 18 18 18 18 18 18 18 18 18 18 18 18 18 18 18 18 18 17 17 17 17 17 18 18
31 31 31 32 33 33 32 32 32 32 32 31 30 29 28 26 24 22 21 20 20 19 18 18 18 18 18 18 18 18 18 18 18 18 18 18 18 18 18 18 18 18 17 17 17 17 17 18 18
31 31 31 31 32 32 31 31 31 31 31 31 30 29 28 26 24 22 21 20 19 19 18 18 18 18 18 18 17 17 17 17 17 17 18 18 18 18 18 18 17 17 17 17 17 17 17 17 18
30 32 32 31 31 31 31 29 29 30 29 30 30 29 28 26 24 22 21 20 19 19 18 18 18 18 18 18 17 17 17 17 18 18 18 17 17 18 17 18 17 17 17 17 17 17 17 17 17
31 32 32 31 30 30 31 29 29 29 28 29 29 29 28 26 24 23 21 20 20 19 18 18 18 18 18 17 17 17 17 17 18 17 17 17 17 17 17 17 17 17 17 17 17 17 17 17 17
32 31 31 30 30 28 29 28 28 28 28 29 29 29 28 26 25 23 22 20 20 19 19 18 18 18 18 17 17 17 17 17 17 17 17 17 17 17 17 17 17 17 17 17 17 17 17 17 17
31 30 28 27 27 27 28 28 29 30 30 29 29 29 28 26 25 23 22 21 20 19 19 18 18 18 17 17 17 17 17 17 17 17 17 17 17 17 17 17 17 17 17 17 17 17 17 17 17
30 30 27 26 25 26 26 26 29 31 30 30 29 28 27 26 25 23 22 21 20 19 19 18 18 18 17 17 17 17 17 17 17 18 17 17 17 17 17 17 17 17 17 16 17 17 16 16 17
30 30 30 29 27 26 26 26 29 30 30 30 29 28 27 26 25 24 22 21 20 20 19 18 18 18 18 17 17 17 17 17 17 17 17 17 17 17 17 17 17 17 17 16 16 16 16 16 16
31 31 30 28 26 25 26 26 26 27 29 29 29 28 27 26 25 24 23 22 21 20 19 18 18 18 18 17 17 17 17 17 17 17 17 17 17 17 17 17 17 16 16 16 16 16 16 16 16
30 30 29 29 28 27 25 25 26 26 27 28 29 28 28 26 25 24 23 22 21 20 19 18 18 17 17 17 17 17 17 17 17 17 17 17 17 17 17 17 16 16 16 16 16 16 16 16 16
30 30 29 27 27 27 26 26 27 26 26 28 28 28 27 26 26 24 23 22 21 20 19 19 18 18 17 17 17 17 17 17 17 17 17 17 17 17 17 17 16 16 16 16 16 16 16 16 16
Wind_Speed
10 12 11 9 6 6 7 1 7 9 9 10 9 9 14 14 10 10 13 20 25 24 22 21 20 19 18 18 17 16 16 16 16 16 16 15 16 16 17 17 17 17 17 18 18 17 17 17 16
11 14 11 7 6 5 3 4 8 9 9 8 7 9 15 15 13 13 16 21 25 23 21 20 21 20 19 18 17 16 16 16 16 15 15 15 15 16 17 17 17 17 17 18 17 17 17 16 15
13 17 9 8 9 7 1 5 8 8 7 6 7 10 11 11 12 13 18 22 23 22 21 22 22 20 19 18 17 16 16 16 15 15 15 15 15 16 17 17 17 17 17 17 17 17 16 14 13
8 10 7 8 11 7 1 6 6 6 6 5 7 9 10 10 9 15 20 21 22 22 22 22 22 21 19 18 17 17 16 16 15 15 14 15 15 16 16 16 17 17 17 17 16 15 14 13 11
11 9 10 11 12 6 1 4 4 4 5 5 7 12 12 9 14 18 19 21 21 22 21 22 22 21 19 18 17 17 16 15 15 14 14 15 15 16 16 16 16 16 16 15 15 14 13 11 8
9 10 11 10 9 4 3 4 3 3 4 5 6 12 10 11 14 17 18 18 20 22 21 21 22 21 19 18 17 16 16 15 15 15 14 15 15 15 15 15 15 15 15 14 14 13 11 9 7
12 12 14 11 9 5 3 3 3 3 4 4 4 8 10 12 14 16 16 17 19 21 21 18 19 19 19 18 17 16 16 15 15 15 15 15 15 15 15 14 14 14 14 13 12 11 11 9 6
13 12 17 14 8 3 4 5 1 2 3 3 3 6 10 14 16 17 16 16 18 19 20 18 18 18 17 16 17 16 16 15 15 15 15 15 15 15 15 14 14 13 12 12 11 11 10 8 5
15 14 14 13 6 2 4 5 3 3 4 3 4 9 16 19 19 18 16 15 16 17 17 17 17 16 17 17 17 16 16 15 15 14 14 15 13 14 13 15 13 12 11 11 10 10 9 7 5
13 13 15 10 6 1 1 2 5 4 5 4 6 13 18 19 19 18 17 18 17 17 16 15 16 15 15 15 15 14 14 14 13 13 13 10 10 12 13 15 13 11 10 9 8 8 8 7 6
15 17 16 12 7 5 3 3 5 6 5 6 9 12 17 18 17 17 16 16 16 15 15 15 13 11 12 11 12 10 11 12 12 13 12 10 11 12 12 10 10 9 9 8 8 7 7 6 4
17 17 16 14 8 7 7 5 6 4 2 6 11 15 17 18 17 17 15 15 15 14 14 14 13 9 8 10 8 8 8 8 8 12 12 9 5 6 7 7 9 9 7 5 5 4 4 3 3
17 17 16 14 11 9 10 9 7 5 5 7 10 15 17 17 17 16 15 15 14 13 13 12 12 10 7 7 6 7 7 8 9 11 9 10 5 5 5 4 5 6 7 5 2 2 3 2 2
15 15 16 14 13 12 11 10 9 7 6 8 10 13 15 16 17 16 15 14 15 14 14 12 12 10 8 6 4 4 6 6 9 9 10 9 7 6 5 4 2 3 5 5 3 4 3 1 1
16 16 16 15 14 13 11 11 10 8 7 9 11 12 14 14 15 15 15 14 15 14 13 12 12 11 9 8 7 5 5 7 6 7 10 8 9 8 5 4 3 3 6 5 2 3 3 2 3
15 16 17 16 14 12 11 11 6 7 9 8 9 11 12 12 13 14 14 13 14 14 13 13 13 12 10 8 6 5 5 6 6 9 10 8 9 9 5 4 4 6 6 4 2 2 2 1 2
16 17 17 13 12 12 12 9 7 9 10 9 8 9 11 13 12 13 15 15 14 14 14 13 11 12 11 9 6 5 4 4 6 8 9 9 10 9 6 4 4 6 4 3 3 3 2 1 1
13 15 13 11 9 12 12 10 9 10 12 10 9 10 11 13 13 13 14 14 13 14 14 13 12 12 11 8 6 4 5 5 5 6 7 10 9 9 6 5 5 4 3 3 2 4 2 1 1
16 14 12 10 7 9 10 10 9 10 9 8 9 9 10 12 14 14 15 14 14 14 14 13 13 12 10 8 8 7 6 5 5 5 9 10 10 9 5 4 5 3 4 4 5 4 4 2 1
17 15 12 10 8 7 8 11 10 8 8 8 8 10 11 13 14 14 14 14 15 14 14 14 13 13 12 8 7 6 6 5 6 6 8 10 10 9 7 5 5 4 4 4 4 3 2 3 3
15 14 13 11 9 9 10 13 10 8 6 6 8 9 11 14 15 16 15 14 15 15 16 15 14 14 12 10 8 7 6 5 6 7 7 8 9 9 6 7 4 5 5 5 5 5 4 2 2
14 14 13 12 11 10 10 9 7 7 7 8 8 10 11 13 15 15 16 15 15 16 15 14 14 13 12 12 11 12 10 9 8 7 7 7 8 8 8 7 5 5 4 6 6 6 3 3 3
14 12 11 12 13 14 12 9 6 6 7 9 10 10 11 14 15 15 16 15 15 16 15 14 14 13 12 12 12 11 9 8 7 7 10 9 7 7 8 8 6 5 4 6 5 5 3 2 3
13 12 11 11 12 14 12 10 6 5 6 6 7 9 10 13 14 14 14 13 13 14 14 14 14 13 13 12 11 11 10 9 9 9 10 9 7 6 8 8 6 5 4 5 5 4 4 2 1
13 11 9 9 9 10 8 8 4 7 7 5 5 7 9 12 13 14 15 14 14 15 14 14 14 13 13 13 11 11 10 9 10 10 10 9 8 7 8 8 7 6 5 5 5 5 4 4 2
14 15 11 8 7 5 5 6 3 6 8 7 7 7 8 11 13 14 15 15 15 16 14 14 14 13 14 13 11 10 10 8 8 9 9 8 7 8 9 8 8 7 7 7 5 5 5 4 3
14 14 14 12 9 6 5 5 3 4 6 8 9 8 7 9 12 13 15 15 15 15 15 15 14 14 13 13 11 10 10 9 9 9 8 7 6 8 10 9 9 7 7 6 6 4 5 5 5
15 13 10 10 6 7 5 4 1 1 2 4 7 8 8 8 11 13 13 14 13 13 13 13 14 14 13 12 11 11 10 9 8 8 8 8 7 8 10 10 9 8 8 7 6 5 5 5 5
14 14 11 9 7 7 5 2 0 2 2 2 4 7 8 8 11 12 12 13 13 14 14 13 13 13 12 12 11 11 11 10 9 8 8 7 7 9 10 9 9 8 8 8 7 5 7 6 5
12 12 10 8 8 8 6 2 3 2 1 0 4 6 7 6 9 12 13 13 13 13 14 13 13 13 12 11 11 10 10 10 10 9 9 9 8 9 9 9 9 9 9 8 8 7 8 7 6
Wind_Direction
229 240 238 250 247 250 266 28 69 73 70 62 52 61 68 61 70 101 126 128 123 125 131 131 129 129 127 124 121 118 115 112 109 105 103 100 98 98 98 98 96 95 96 97 97 98 98 97 97
246 245 242 248 250 269 279 93 83 77 81 89 77 69 75 72 85 113 124 124 124 128 135 133 131 130 128 126 124 122 119 115 112 109 107 104 102 101 100 99 99 98 98 98 99 99 98 98 99
257 258 258 252 247 253 283 85 94 94 91 93 88 71 68 80 93 115 125 129 128 133 133 132 134 131 130 128 126 125 122 118 116 113 110 108 106 104 102 101 101 100 100 100 100 100 100 100 101
249 242 241 264 275 268 98 91 97 103 102 94 98 88 79 74 103 122 132 133 132 133 131 135 135 132 131 130 128 127 124 122 120 116 114 112 109 107 104 103 102 101 101 101 102 102 102 102 103
244 256 246 257 265 262 110 108 114 123 117 109 101 102 98 90 110 128 138 135 137 132 131 136 136 134 133 132 131 129 127 126 124 121 117 114 111 110 107 106 105 103 103 105 105 105 105 106 105
244 248 255 263 271 236 144 135 138 118 123 119 112 111 107 120 124 138 141 140 135 130 132 136 136 136 135 134 133 132 131 129 127 125 122 119 115 113 112 111 109 107 107 108 109 108 110 110 107
253 268 271 272 267 254 148 121 135 133 126 109 115 113 122 131 134 141 139 138 132 131 133 140 140 139 138 137 137 136 135 134 131 130 128 125 122 119 117 115 113 112 112 113 113 114 116 117 119
253 274 281 276 253 244 131 122 152 161 110 109 113 107 133 141 145 142 143 137 133 134 140 145 146 145 145 143 142 141 140 139 137 136 135 132 130 127 126 119 116 116 117 118 119 122 125 129 140
249 262 275 287 287 178 145 149 174 164 140 116 81 102 137 143 148 148 148 140 139 140 145 148 149 152 153 150 147 147 146 145 144 144 145 145 145 139 138 121 123 123 123 125 129 135 139 146 166
238 253 263 280 307 337 176 185 174 193 166 158 114 112 133 148 154 157 159 154 150 147 151 151 153 158 158 152 149 156 156 155 161 153 160 171 145 136 128 130 132 133 134 138 145 152 162 175 180
237 251 272 287 301 310 254 237 225 215 194 165 147 146 148 156 159 163 165 158 153 153 156 153 154 161 158 147 159 162 155 161 168 157 167 164 139 134 130 140 142 149 156 163 157 177 189 191 177
243 255 267 283 295 290 280 257 247 243 195 146 149 155 159 165 167 169 167 160 156 158 159 155 154 157 150 149 163 157 153 164 161 158 169 152 145 140 142 147 156 164 163 159 160 157 142 147 124
243 255 263 267 271 266 269 265 259 243 173 147 151 160 165 171 170 169 167 162 157 159 159 153 151 152 150 145 160 161 153 161 148 155 166 149 146 139 130 129 150 152 144 146 148 117 104 95 106
260 257 262 264 259 255 253 259 259 256 191 163 165 167 171 175 172 169 167 165 163 165 162 154 153 148 143 146 160 147 147 145 144 150 155 158 143 128 128 131 137 124 128 127 136 127 112 108 100
263 264 260 255 251 247 248 252 252 253 218 192 181 176 175 173 173 172 170 168 168 167 160 156 158 153 151 157 171 155 150 151 141 141 150 154 138 136 143 138 147 123 119 128 139 128 136 170 147
255 253 256 253 240 234 236 250 246 223 227 207 191 179 172 169 174 170 165 166 165 164 159 163 168 160 160 161 173 158 155 151 144 146 150 157 143 150 156 147 151 140 140 146 142 164 157 120 127
248 244 247 249 231 229 229 240 228 210 217 207 193 182 173 169 171 165 164 166 162 162 161 166 166 163 166 163 165 160 146 143 142 146 150 157 153 156 159 148 137 157 155 158 177 142 138 144 137
242 246 249 247 228 226 235 238 226 220 220 203 191 183 174 170 169 165 163 162 160 162 162 166 164 163 164 161 162 157 154 152 149 148 146 153 159 163 167 147 151 178 154 144 117 121 118 150 212
259 269 265 257 245 243 248 252 242 227 218 204 189 179 172 167 164 161 161 163 161 161 162 165 168 166 163 168 170 169 169 167 160 156 152 160 167 164 170 152 154 175 149 154 160 153 168 201 181
251 264 268 268 258 253 259 262 257 232 219 211 191 179 176 164 158 161 160 164 165 165 168 171 174 171 171 173 172 171 164 171 173 169 159 166 168 166 175 155 163 165 153 163 167 160 189 198 180
246 254 260 263 264 261 261 264 261 245 223 210 200 185 180 165 162 165 168 170 171 173 175 177 176 174 174 171 171 172 163 178 174 165 167 172 167 172 175 156 173 165 169 169 179 181 195 205 191
244 250 261 267 265 266 257 265 248 226 216 218 209 185 179 166 164 166 171 174 178 178 177 174 175 174 174 175 180 178 177 182 180 173 170 170 172 173 168 164 176 177 176 162 190 183 184 198 213
244 257 260 265 268 269 263 260 250 197 216 218 203 186 176 163 165 167 172 174 177 178 177 176 174 174 177 184 186 184 183 182 176 172 165 170 175 176 171 168 171 180 177 172 179 151 187 203 220
240 249 255 257 262 259 260 261 246 193 186 203 198 170 161 158 160 162 165 166 172 175 175 177 175 176 180 185 186 189 184 179 178 174 167 173 173 180 175 171 166 176 182 163 154 162 185 212 215
228 235 240 242 242 257 284 259 231 159 156 159 170 162 157 154 157 161 164 168 171 173 174 173 174 178 181 184 186 190 186 181 177 176 174 176 174 177 178 173 167 181 170 160 163 179 192 184 178
222 230 236 245 252 263 269 262 259 144 135 133 139 150 146 152 159 163 168 170 173 174 173 172 172 177 180 181 181 184 184 182 180 181 176 180 179 176 168 165 172 177 170 175 168 183 191 176 181
223 231 240 249 260 259 238 243 200 143 128 125 131 140 156 159 158 163 169 171 174 174 173 176 175 177 179 179 178 181 188 188 180 176 176 179 177 167 164 167 174 177 174 171 166 197 190 161 183
235 231 242 253 266 272 259 241 320 6 121 138 135 148 160 157 156 161 167 168 171 170 170 172 175 176 177 177 179 184 190 191 174 175 186 179 173 160 162 170 174 174 173 172 176 193 174 170 190
221 230 239 255 262 267 268 258 215 313 279 170 140 137 147 160 159 160 164 164 166 167 169 171 172 173 176 180 182 182 184 183 175 179 182 175 165 161 167 172 173 173 174 175 184 195 172 181 192
225 232 235 248 265 276 279 265 180 124 278 317 109 114 134 159 158 159 162 163 165 168 169 171 173 175 177 179 180 182 178 178 180 181 178 172 168 167 169 172 171 175 177 178 187 203 182 181 192
Height
1477 1476 1476 1479 1476 1474 1468 1453 1445 1448 1450 1453 1454 1456 1461 1467 1475 1488 1487 1488 1490 1493 1497 1501 1505 1508 1511 1513 1515 1518 1520 1521 1523 1524 1526 1527 1528 1530 1531 1532 1533 1535 1536 1537 1538 1540 1541 1543 1544
1476 1477 1479 1476 1473 1479 1466 1448 1448 1450 1452 1455 1457 1459 1463 1470 1475 1482 1486 1490 1491 1494 1498 1502 1506 1509 1512 1515 1517 1520 1522 1523 1525 1527 1528 1530 1531 1532 1533 1535 1536 1537 1538 1540 1541 1542 1544 1545 1547
1476 1477 1478 1469 1469 1470 1460 1447 1447 1449 1453 1455 1458 1462 1468 1474 1479 1483 1487 1490 1493 1496 1499 1503 1507 1510 1513 1516 1519 1521 1523 1525 1527 1529 1530 1532 1533 1534 1536 1537 1538 1539 1541 1542 1543 1545 1546 1547 1549
1477 1477 1474 1467 1465 1450 1444 1444 1446 1449 1453 1456 1459 1465 1473 1478 1481 1484 1488 1492 1494 1498 1500 1504 1508 1511 1514 1518 1520 1523 1525 1527 1529 1531 1532 1534 1535 1537 1538 1539 1541 1542 1543 1544 1546 1547 1549 1550 1552
1478 1473 1469 1467 1458 1444 1440 1443 1446 1450 1453 1456 1459 1466 1475 1480 1482 1485 1489 1493 1496 1499 1501 1505 1509 1512 1516 1519 1522 1524 1526 1529 1530 1532 1534 1536 1537 1539 1540 1541 1543 1544 1546 1547 1548 1550 1551 1553 1554
1475 1466 1468 1466 1455 1442 1439 1443 1447 1450 1453 1456 1459 1465 1476 1480 1482 1486 1490 1494 1497 1499 1502 1506 1510 1513 1517 1520 1523 1525 1528 1530 1532 1534 1536 1538 1539 1541 1542 1544 1545 1546 1548 1549 1551 1552 1553 1555 1556
1473 1464 1462 1456 1453 1444 1440 1443 1447 1450 1453 1457 1460 1466 1475 1480 1483 1487 1491 1495 1498 1500 1502 1507 1510 1514 1517 1520 1524 1526 1529 1531 1533 1535 1537 1539 1541 1543 1544 1546 1547 1549 1550 1552 1553 1554 1556 1557 1558
1469 1464 1459 1450 1446 1445 1440 1444 1449 1452 1454 1458 1460 1465 1474 1480 1483 1487 1491 1495 1498 1500 1503 1507 1511 1514 1518 1521 1524 1527 1530 1532 1534 1536 1539 1541 1542 1544 1546 1548 1549 1551 1552 1554 1555 1556 1558 1559 1561
1467 1466 1462 1449 1442 1440 1440 1444 1449 1452 1455 1459 1461 1465 1471 1477 1482 1487 1491 1495 1498 1501 1504 1507 1511 1514 1518 1521 1525 1528 1530 1533 1535 1538 1540 1542 1544 1546 1548 1550 1551 1553 1554 1556 1557 1559 1560 1562 1563
1462 1463 1454 1442 1436 1437 1440 1443 1448 1451 1454 1458 1463 1468 1472 1476 1481 1485 1489 1493 1497 1500 1504 1507 1511 1515 1519 1522 1525 1528 1531 1534 1536 1539 1541 1543 1546 1548 1549 1551 1553 1554 1556 1557 1559 1561 1562 1563 1565
1456 1454 1446 1439 1437 1438 1440 1444 1447 1448 1452 1456 1462 1468 1472 1476 1480 1484 1488 1492 1495 1499 1503 1507 1511 1515 1519 1522 1525 1528 1532 1534 1537 1539 1542 1544 1547 1549 1551 1552 1554 1555 1557 1559 1561 1562 1564 1565 1567
1451 1447 1444 1440 1439 1441 1441 1442 1445 1446 1450 1454 1458 1464 1470 1474 1478 1482 1486 1490 1494 1499 1503 1507 1510 1514 1518 1521 1525 1528 1531 1534 1537 1539 1543 1545 1548 1550 1551 1553 1555 1556 1558 1560 1562 1564 1565 1566 1568
1446 1444 1442 1441 1440 1441 1442 1442 1443 1445 1449 1453 1458 1463 1467 1472 1477 1481 1485 1489 1493 1497 1501 1505 1508 1513 1517 1520 1524 1528 1531 1534 1536 1539 1542 1545 1548 1550 1552 1553 1556 1557 1559 1561 1563 1564 1566 1567 1568
1442 1441 1440 1439 1438 1439 1440 1441 1443 1445 1447 1451 1456 1461 1466 1470 1474 1479 1483 1487 1490 1494 1499 1503 1507 1511 1515 1519 1522 1526 1530 1533 1536 1538 1541 1545 1547 1549 1551 1553 1556 1558 1559 1561 1563 1565 1566 1568 1569
1441 1440 1438 1436 1436 1436 1438 1442 1442 1443 1446 1449 1453 1458 1463 1468 1472 1476 1479 1483 1488 1492 1496 1500 1504 1509 1513 1517 1522 1526 1529 1532 1535 1537 1540 1543 1546 1548 1551 1553 1555 1557 1559 1561 1563 1565 1566 1568 1569
1439 1442 1444 1434 1431 1432 1440 1449 1440 1443 1445 1446 1450 1455 1460 1465 1470 1473 1477 1481 1486 1490 1494 1498 1503 1507 1511 1515 1520 1524 1527 1531 1534 1536 1539 1542 1545 1547 1550 1552 1555 1557 1558 1560 1562 1564 1566 1568 1569
1442 1445 1442 1433 1426 1428 1434 1442 1438 1439 1441 1444 1447 1452 1457 1462 1468 1472 1475 1480 1484 1487 1492 1496 1501 1505 1509 1514 1518 1522 1526 1528 1532 1535 1538 1541 1543 1546 1549 1551 1553 1556 1558 1560 1562 1564 1565 1567 1569
1444 1439 1436 1433 1424 1426 1430 1434 1431 1435 1437 1440 1444 1449 1454 1459 1465 1469 1473 1478 1482 1486 1490 1494 1498 1503 1507 1512 1516 1520 1524 1527 1530 1533 1536 1539 1542 1545 1548 1550 1552 1555 1557 1559 1561 1563 1565 1566 1568
1432 1433 1434 1428 1420 1424 1428 1430 1428 1429 1432 1436 1441 1446 1451 1456 1462 1467 1471 1476 1480 1484 1487 1491 1495 1500 1505 1509 1513 1517 1521 1525 1528 1531 1534 1537 1540 1543 1546 1549 1551 1553 1556 1558 1560 1562 1564 1566 1567
1430 1434 1433 1426 1419 1423 1427 1428 1424 1425 1428 1433 1437 1442 1447 1453 1459 1465 1469 1473 1477 1480 1485 1489 1493 1498 1502 1507 1511 1515 1520 1523 1527 1530 1532 1535 1538 1541 1544 1547 1549 1552 1554 1556 1559 1560 1563 1565 1566
1429 1432 1431 1430 1423 1421 1428 1433 1428 1425 1427 1431 1435 1439 1444 1450 1456 1462 1466 1471 1474 1478 1482 1486 1491 1495 1499 1504 1509 1514 1518 1521 1525 1527 1530 1533 1536 1539 1542 1545 1547 1550 1552 1554 1557 1559 1561 1563 1565
1433 1424 1424 1426 1431 1434 1430 1447 1433 1426 1428 1430 1433 1437 1441 1446 1453 1458 1463 1467 1471 1475 1480 1484 1488 1492 1497 1501 1505 1509 1513 1517 1521 1524 1527 1531 1534 1537 1540 1542 1545 1548 1550 1553 1555 1557 1559 1561 1563
1425 1420 1422 1426 1431 1435 1429 1441 1436 1426 1433 1431 1431 1433 1438 1443 1450 1455 1460 1464 1468 1472 1477 1482 1486 1490 1494 1498 1502 1507 1511 1515 1518 1522 1525 1528 1531 1534 1537 1540 1543 1546 1548 1551 1553 1555 1557 1559 1561
1418 1422 1425 1427 1433 1447 1437 1443 1442 1428 1429 1428 1428 1431 1435 1441 1447 1453 1458 1463 1467 1471 1475 1480 1483 1487 1491 1495 1499 1503 1507 1511 1515 1519 1522 1525 1528 1531 1535 1538 1541 1544 1546 1548 1551 1553 1555 1556 1558
1420 1433 1448 1455 1457 1454 1438 1439 1432 1418 1418 1421 1426 1429 1434 1439 1445 1451 1456 1461 1465 1469 1473 1477 1480 1484 1488 1492 1496 1501 1505 1508 1512 1515 1519 1522 1525 1528 1532 1535 1538 1541 1544 1546 1548 1551 1553 1554 1556
1421 1427 1449 1463 1465 1456 1446 1446 1426 1413 1415 1419 1425 1429 1432 1438 1444 1449 1454 1459 1463 1467 1471 1475 1478 1481 1486 1490 1494 1498 1502 1506 1509 1513 1516 1519 1523 1526 1529 1533 1536 1539 1541 1544 1546 1548 1550 1552 1554
1420 1423 1420 1434 1443 1453 1450 1439 1423 1413 1416 1419 1424 1429 1432 1437 1442 1447 1452 1457 1461 1465 1469 1472 1476 1479 1483 1487 1491 1495 1499 1503 1507 1510 1514 1517 1521 1524 1527 1530 1533 1536 1539 1542 1544 1547 1548 1550 1552
1409 1414 1422 1432 1451 1459 1450 1446 1441 1427 1421 1422 1423 1427 1432 1436 1440 1446 1451 1455 1460 1464 1467 1470 1473 1477 1481 1485 1489 1493 1496 1500 1504 1508 1511 1515 1519 1522 1524 1527 1531 1534 1537 1539 1542 1544 1546 1548 1550
1413 1417 1419 1424 1429 1448 1457 1454 1433 1429 1425 1423 1424 1426 1430 1435 1440 1444 1449 1454 1458 1462 1465 1468 1472 1475 1479 1482 1486 1491 1494 1498 1501 1505 1509 1512 1516 1519 1522 1525 1528 1531 1534 1537 1540 1542 1544 1546 1548
1407 1413 1418 1434 1437 1433 1444 1447 1424 1425 1425 1425 1425 1427 1430 1434 1438 1443 1448 1452 1456 1460 1464 1467 1470 1473 1476 1480 1484 1488 1492 1495 1499 1502 1506 1509 1513 1516 1519 1523 1526 1529 1532 1534 1537 1540 1542 1544 1546